Weather in Maly Spirin

Russia / Republic of Khakassia     54°26′24″N   89°56′40″E
temp.,
°C
wind,
m/s
gust,
m/s
humid.,
%
clouds,
%
prec.,
mm/h
press.,
hPa
HPBL,
m
29 july, thu
thu2901:00+13se1171100 0.0 101111
04:00+13sse1170100 0.0 101010
07:00+13se1172100 0.0 101118
10:00+17e22569 0.0 1010946
13:00+18ene1149100 0.2 10091375
16:00+20e425066 0.1 10091583
19:00+18ne345898 0.1 1009427
22:00+13ese2278100 0.0 101011
30 july, fri
fri3001:00+12sse1181100 0.0 101011
04:00+13ese1173100 0.0 101012
07:00+14w007486 0.0 101075
10:00+18e23545 0.0 1010792
13:00+22e2243100 0.0 10091726
16:00+21nne1251100 0.0 1009510
19:00+20nw2256100 0.0 101033
22:00+16w1170100 0.3 101211
31 july, sat
sat3101:00+13wsw2284100 0.4 101415
04:00+11wsw22850 0.0 101511
07:00+13w12803 0.0 101781
10:00+19ne11620 0.0 1016628
13:00+22ene22470 0.0 10141470
16:00+24ene22385 0.0 10132236
19:00+22ene3547100 0.0 1013271
22:00+18sse2255100 0.0 101415
1 august, sun
sun101:00+17s116490 0.0 101314
04:00+16sw1168100 0.0 101318
07:00+16sw1169100 0.0 101379
10:00+21e0153100 0.0 1012635
13:00+24nnw353873 0.0 10102043
16:00+23nw553821 0.0 10101832
19:00+22nnw234795 0.0 1010666
22:00+18ese115628 0.0 101011
2 august, mon
mon201:00+14ssw22695 0.0 100914
04:00+12ssw227976 0.0 100915
07:00+15sw2267100 0.0 100896
10:00+22w3743100 0.0 10071147
13:00+21ese215155 0.0 1006163
16:00+23sw244798 0.1 1005540
19:00+22sw125083 0.1 1004107
22:00+19se33576 0.0 100341